{"data":{"norad_id":39090,"intl_designator":"2013-009E","name":"STRAND-1","alt_names":[],"object_type":"PAYLOAD","status":"ACTIVE","operator":null,"country":"UK","launch_date":"2013-02-25","launch_site_code":"SRILR","launch_vehicle":null,"mission":null,"orbit_class":"UNKNOWN","rcs_meters":0.0582,"size_class":null,"mass_kg":null,"dimensions":null,"purposes":["comms","tech_demo"],"wikipedia_slug":null,"has_3d_model":false,"image_url":null,"decayed_at":null,"tle_current":{"epoch":"2026-09-19T22:46:20.326368Z","epoch_age_seconds":61920,"freshness":"FRESH","line1":"1 39090U 13009E   26262.94884637  .00000167  00000+0  70421-4 0  9992","line2":"2 39090  98.3970  80.8876 0007750 313.4931  46.5611 14.37208561710670","mean_motion":14.37208561,"eccentricity":0.000775,"inclination_deg":98.397,"raan_deg":80.8876,"arg_perigee_deg":313.4931,"mean_anomaly_deg":46.5611,"bstar":7.0421e-5,"rev_number":71067,"period_min":100.19422643837,"perigee_km":762.19823703667,"apogee_km":773.27434063436,"semimajor_km":7145.8732888355,"source":"CELESTRAK","updated_at":"2026-09-20T09:00:48.020745Z"}}}